Regional Weather Roundup
Issued by NWS New Orleans/Baton Rouge, LA

Home | Current Version | Previous Version | Text Only | Print | Product List | Glossary On
Versions: 1 2 3 4 5 6 7 8 9 10 11 12 13 14 15 16 17 18 19 20 21 22 23 24 25 26 27 28 29 30 31 32 33 34 35 36 37 38 39 40 41 42 43 44 45 46 47 48 49 50
000
ASUS44 KLIX 291510
RWRLIX
NEW ORLEANS REGIONAL WEATHER ROUNDUP
NATIONAL WEATHER SERVICE NEW ORLEANS LA
1000 AM CDT TUE JUL 29 2014

NOTE: "FAIR" INDICATES FEW OR NO CLOUDS BELOW 12,000 FEET WITH NO
      SIGNIFICANT WEATHER AND/OR OBSTRUCTIONS TO VISIBILITY.
      SKY/WX - SKY CONDITION AND SIGNIFICANT WEATHER.
      TMP - AIR TEMPERATURE.     DP    - DEWPOINT TEMPERATURE.
      RH  - RELATIVE HUMIDITY.   PRES  - PRESSURE.
      HI  - HEAT INDEX.          WCI   - WIND CHILL INDEX.

*  THESE STATIONS ARE NOT NWS OR FAA STATIONS AND ARE NOT UNDER
   NWS QUALITY CONTROL.

LAZ038-040-048-061>063-065>067-069-291600-
SOUTHEAST LOUISIANA

CITY           SKY/WX    TMP DP  RH WIND       PRES   REMARKS
N.O. AUDUBON   NOT AVBL
N.O. INTL ARPT CLOUDY    85  69  58 NE10      30.06F
N.O. LAKEFRONT CLOUDY    81  68  64 NE7       30.07S
N.O. DOWNTOWN* PTSUNNY   82  64  54 NE3       30.07S
SLIDELL        CLOUDY    80  69  69 NE5       30.07R
BATON ROUGE    PTSUNNY   81  68  64 VRB5      30.08S
BOOTHVILLE     CLOUDY    83  71  67 NE6       30.06R
BELLE CHASSE   CLOUDY    83  67  58 NE7       30.06S
BOGALUSA*        N/A     82  66  59 NE5       30.10R
GALLIANO*      NOT AVBL
NEW ROADS*     PTSUNNY   80  70  71 N6        30.09S
GONZALES*      CLOUDY    79  71  76 CALM      30.08R
HAMMOND*       PTSUNNY   82  66  57 NE3       30.10R
HOUMA*         CLOUDY    82  70  65 N7        30.06S
PORT FOURCHON* SUNNY     84  72  65 N10       30.07S

$$

MSZ070-080>082-291600-
SOUTHERN MISSISSIPPI

CITY           SKY/WX    TMP DP  RH WIND       PRES   REMARKS
MCCOMB         SUNNY     80  64  58 CALM      30.10S
GULFPORT       PTSUNNY   86  65  49 N7        30.05S
BILOXI         PTSUNNY   82  67  60 NE10      30.06R
PASCAGOULA     MOSUNNY   82  67  60 N9        30.05S
STENNIS ARPT*  MOSUNNY  N/A N/A N/A NE7       30.07R

$$

COASTAL OBSERVATIONS
LAKE AND NEARSHORE STATIONS

STATION/POSITION TIME  TEMP    WIND        PRES    WAVE
                       AIR SEA DIR/SP/G            HT/PER
                 (UTC) (F)     (DEG/KT/KT) (MB)    (FT/S)
PASCAGOULA       1500   81      30/  8/ 12 1017.0
WAVELAND YACHT   1500   79      40/  6/ 10 1017.4
GRAND ISLE       1500   82 86   50/  5/  7 1018.8
SOUTHWEST PASS   1500   87 84   30/ 10/ 11 1018.1
NEW CANAL        1500   80 83   60/  6/  8 1018.5
SHELL BEACH      1500   81 81   40/  8/  9 1017.9

OFFSHORE STATIONS

STATION/POSITION TIME  TEMP    WIND        PRES    WAVE
                       AIR SEA DIR/SP/G            HT/PER
                 (UTC) (F)     (DEG/KT/KT) (MB)    (FT/S)
64 S DAUPHIN ISL 1406   82 86   20/ 14/ 16 1017.2

$$



USA.gov is the U.S. government's official web portal to all federal, state and local government web resources and services.